STARLINK-33891, 63827

Orbit data source: Space-Track

STARLINK-33891, 63827 is a payload satellite owned by SpaceX/Seattle (US) in LEO that was launched on Sun, 04 May 2025 UTC via an FALCON 9 launch vehicle from the Air Force Eastern Test Range (AFETR). Payload-class satellites include a variety of spacecraft equipped with specific instruments for various scientific and technological missions. These include communications satellites like Starlink; space stations such as the ISS; scientific satellites like the Hubble; Earth observation satellites from companies like Planet Labs, Umbra, and HawkEye 360; GPS; miniature CubeSats for education and research; and military/defense satellites.

Loading next visibility...
Identifier
63827, 2025-092Z
Orbit
LEO
Country
Flag of USUS
Related business
Manufacturer
SpaceX/Seattle
Mission
Operational Commercial Communications
Bus & Motor
STARLINK V2MO, Unknown motor
Mass
575 kg wet, ~530 kg dry
Launch date (UTC)
2025-05-04 (6 months ago)
Launch vehicle
FALCON 9
Launch site
Air Force Eastern Test Range (AFETR)
Object type
Payload
Rocket body
Debris
Shape & HBR
Box + 2 Pan, 17.7 m
Radar Cross Section
36.964 m², Large (>1 m²)

Expand to show TLE details & history
Last TLE update: 14 hours ago

TLE from 14 hours ago
0 STARLINK-33891
1 63827U 25092Z   25308.88979607  .00025794  00000-0  94332-3 0  9997
2 63827  43.0010 157.7297 0001474 265.5973  94.4710 15.27589015 29466
Epoch: 2025-11-04T21:21Z
TLE epoch observation values (Epoch: 2025-11-04T21:21:18.380Z)
Latitude
-0.00003°
Longitude
153.03274°
Altitude
482.877 km
Speed
7.626 km/s
True Right ascension
10h 30m 55s
True Declination
0° 00' 00"
Sunlit
Object was in daylight at epoch
Visualization orbit readout
Latitude
Unknown
Longitude
Unknown
Altitude
Unknown
Speed
Unknown
Apparent Right ascension
Unknown
Apparent Declination
Unknown
Sunlit
N/A
Visualization observer readout
Local Sidereal Time
07:47:36
Azimuth
Unknown
Elevation
Unknown
Doppler factor
Unknown
Orbital elements
Apogee altitude
485.979 km
Perigee altitude
483.955 km
Semi-major axis
6,863.104 km
Eccentricity
0.00015
Inclination
43.001°
RAAN
157.7297°
Arg. of periapsis
265.5973°
True anomaly
94.48784°
Mean anomaly
94.471°
Eccentric anomaly
94.47942°
Mean motion
3.81735 °/min
Orbital period
94.31 mins
BSTAR
0.00094332
Loading maneuver chart data...
Computing Atmospheric mass density...
Loading historical data...
Loading historical data...
Loading historical data...
Loading historical data...
Loading historical data...
Loading historical data...
Loading historical data...

Documentation

Showing up to 5 results
|